Weather History for Wallops Island, VA

Change the Weather History Date:

Monday, July 8, 2013

  Actual Average Record
Temperature  
Mean Temperature 81 °F 77 °F  
Max Temperature 88 °F 85 °F 97 °F (1993)
Min Temperature 74 °F 69 °F 55 °F (2000)
Degree Days  
Heating Degree Days 0    
Month to date heating degree days 0  
Since 1 June heating degree days 0  
Since 1 July heating degree days 0  
Cooling Degree Days 16    
Month to date cooling degree days 122  
Year to date cooling degree days 565  
Since 1 June cooling degree days 434  
Growing Degree Days 32 (Base 50)    
Moisture  
Dew Point 68 °F    
Average Humidity 65    
Maximum Humidity 79    
Minimum Humidity 50    
Precipitation  
Precipitation 0.01 in 0.10 in 1.28 in (2011)
Month to date precipitation 0.36 0.82  
Year to date precipitation 22.24 19.93  
Sea Level Pressure  
Sea Level Pressure 30.09 in    
Wind  
Wind Speed 9 mph (WSW)    
Max Wind Speed 17 mph    
Max Gust Speed 24 mph    
Visibility 10 miles    
Events      
T = Trace of Precipitation, MM = Missing Value Source: NWS Daily Summary

Daily Weather History Graph

Daily Weather History Graph

Search for Another Location

Airport:

Trip Planner

Search our weather history database for the weather conditions in past years. The results will help you decide how hot, cold, wet, or windy it might be!

Date:

Astronomy

Jul. 08, 2013 Rise Set
Actual Time 5:47 AM EDT 8:26 PM EDT
Civil Twilight 5:16 AM EDT 8:57 PM EDT
Nautical Twilight 4:37 AM EDT 9:36 PM EDT
Astronomical Twilight 3:54 AM EDT 10:19 PM EDT
Moon 6:12 AM EDT (7/8) 8:29 PM EDT (7/8)
Length of Visible Light 15h 41m
Length of Day
14h 39m
Waxing Crescent, 0% of the Moon is Illuminated
Jul 8
Waxing Crescent
Jul 15
First Quarter
Jul 22
Full
Jul 29
Last Quarter
Aug 6
New

Hourly Weather History & Observations

Time (EDT) Temp. Heat Index Dew Point Humidity Pressure Visibility Wind Dir Wind Speed Gust Speed Precip Events Conditions
12:54 AM 79.0 °F - 68.0 °F 69% 30.07 in 10.0 mi SW 6.9 mph - N/A   Clear
1:54 AM 77.0 °F - 69.1 °F 76% 30.06 in 10.0 mi SSW 5.8 mph - N/A   Scattered Clouds
2:54 AM 75.9 °F - 68.0 °F 76% 30.06 in 10.0 mi SW 8.1 mph - N/A   Scattered Clouds
3:54 AM 78.1 °F - 68.0 °F 71% 30.06 in 10.0 mi SSW 5.8 mph - N/A   Partly Cloudy
4:54 AM 77.0 °F - 69.1 °F 76% 30.07 in 10.0 mi SW 5.8 mph - 0.01 in   Mostly Cloudy
5:54 AM 78.1 °F - 70.0 °F 76% 30.08 in 10.0 mi WSW 5.8 mph - N/A   Partly Cloudy
6:54 AM 80.1 °F 83.6 °F 71.1 °F 74% 30.09 in 10.0 mi West 8.1 mph - N/A   Clear
7:54 AM 82.9 °F 87.0 °F 70.0 °F 65% 30.10 in 10.0 mi West 8.1 mph - N/A   Overcast
8:54 AM 82.0 °F 84.9 °F 68.0 °F 62% 30.11 in 10.0 mi West 10.4 mph 17.3 mph N/A   Clear
9:54 AM 84.0 °F 87.0 °F 68.0 °F 58% 30.11 in 10.0 mi WNW 9.2 mph - N/A   Partly Cloudy
10:54 AM 86.0 °F 88.8 °F 66.9 °F 53% 30.10 in 10.0 mi WNW 9.2 mph - N/A   Mostly Cloudy
11:35 AM 82.0 °F 84.1 °F 66.0 °F 58% 30.14 in 10.0 mi WNW 12.7 mph 24.2 mph N/A   Mostly Cloudy
11:54 AM 81.0 °F 83.3 °F 66.9 °F 62% 30.13 in 10.0 mi West 11.5 mph - N/A   Overcast
12:54 PM 84.0 °F 87.0 °F 68.0 °F 58% 30.11 in 10.0 mi West 10.4 mph - N/A   Clear
1:36 PM 86.0 °F 90.1 °F 69.1 °F 57% 30.11 in 10.0 mi West 12.7 mph 19.6 mph N/A   Mostly Cloudy
1:46 PM 86.0 °F 88.8 °F 66.9 °F 53% 30.11 in 10.0 mi West 12.7 mph 20.7 mph N/A   Scattered Clouds
1:54 PM 86.0 °F 89.4 °F 68.0 °F 55% 30.10 in 10.0 mi West 15.0 mph 19.6 mph N/A   Scattered Clouds
2:54 PM 87.1 °F 89.9 °F 66.9 °F 51% 30.09 in 10.0 mi West 13.8 mph 21.9 mph N/A   Partly Cloudy
3:54 PM 87.1 °F 89.9 °F 66.9 °F 51% 30.09 in 10.0 mi WNW 9.2 mph - N/A   Partly Cloudy
4:54 PM 84.0 °F 87.0 °F 68.0 °F 58% 30.07 in 10.0 mi West 6.9 mph - N/A   Clear
5:54 PM 84.0 °F 87.0 °F 68.0 °F 58% 30.08 in 10.0 mi West 10.4 mph - N/A   Clear
6:54 PM 84.0 °F 87.8 °F 69.1 °F 61% 30.07 in 10.0 mi SW 10.4 mph - N/A   Clear
7:54 PM 82.9 °F 85.8 °F 68.0 °F 60% 30.07 in 10.0 mi SW 8.1 mph - N/A   Clear
8:54 PM 75.9 °F - 66.9 °F 74% 30.09 in 10.0 mi SW 9.2 mph - N/A   Clear
9:54 PM 77.0 °F - 68.0 °F 74% 30.12 in 10.0 mi SW 8.1 mph - N/A   Clear
10:54 PM 77.0 °F - 68.0 °F 74% 30.11 in 10.0 mi West 6.9 mph - N/A   Clear
11:54 PM 75.0 °F - 66.9 °F 76% 30.12 in 10.0 mi SSW 8.1 mph - N/A   Clear